Find RCM 2

NORAD ID: 44323 Int'l Des: 2019-033 Owner: CSA Country: CA operational
別名: RCM 3 spacetrack, celestrak
LEOCIRCULARRETROGRADESSO

現在のビュー

3D地球を読み込み中...

About RCM 2

RCM 2 (NORAD 44323) is a satellite launched Jun 12, 2019 by CSA of CA. It operates in LEO, CIRCULAR, RETROGRADE, SSO orbit with a mass of 1450.00 kg.

次回通過

Passes for default location (London). Set your location on the main map for personalized predictions.

高度履歴

Loading altitude history...

軌道要素

1 44323U 19033B 26250.61536068 .00000402 00000-0 44522-4 0 9999
2 44323 97.7599 256.9921 0001533 90.3281 269.8114 14.92588576394397
Epoch: Sep 7, 2026 • Age: 10 hours

現在のステータス

高度 602.3 km
遠地点 / 近地点 N/A
速度 7.57 km/s
衛星直下点 82.24°N, 174.25°E
打ち上げ日 Jun 12, 2019
運用期間 7.2 years
タイプ other

技術仕様

分類 Payload
質量 1450.00 kg
乾燥質量 1400.00 kg
総質量 1450.00 kg
長さ 5.00 m
直径 1.40 m
スパン 7.00 m
形状 Box+2 panels
製造者 BALM/MAXAR
バスタイプ MAC-200
フェーズステータス In Orbit
所有者/国 CSA/CA

Most Searched